Preview of NWS' New Version of Forecast
This preview is not operational and should not be used for support decisions.

Regional Weather Roundup (RWR)

Issued by Philadelphia/Mt Holly (PHI)

                            
000
ASUS41 KPHI 170512
RWRPHI

REGIONAL WEATHER ROUNDUP
NATIONAL WEATHER SERVICE MOUNT HOLLY NJ
100 AM EDT TUE SEP 17 2019

NOTE:  "FAIR" INDICATES FEW OR NO CLOUDS BELOW 12,000 FEET WITH NO
SIGNIFICANT WEATHER AND/OR OBSTRUCTIONS TO VISIBILITY.

 * = STATION DOES NOT REPORT PRECIPITATION (E.G. RAIN, SNOW, ETC.) 
        OR FOG.

NJZ015>026-170600-
SOUTHERN NEW JERSEY
  
CITY           SKY/WX    TMP DP  RH WIND       PRES   REMARKS
POMONA         CLOUDY    70  66  87 NE3       30.03S                  
WILDWOOD*      CLOUDY    70  69  97 CALM      30.03S                  
MILLVILLE      MOCLDY   N/A N/A N/A NE6       30.03S                  
WRIGHTSTOWN    MOCLDY    67  65  93 CALM      30.05R                  
MOUNT HOLLY    MOCLDY    66  64  93 NE3       30.05R                  
TRENTON        FAIR      68  63  84 NE3       30.05S                  

$$
NJZ001>014-170600-
NORTHERN NEW JERSEY
  
CITY           SKY/WX    TMP DP  RH WIND       PRES   REMARKS
SUSSEX         FAIR      58  56  93 CALM      30.10R                  
ANDOVER*         N/A     60  58  92 CALM      30.10R                  
MORRISTOWN     MOCLDY    61  61 100 CALM      30.08R                  
NEWARK         MOCLDY    71  59  65 NE7       30.06R                  
TETERBORO      FAIR      68  56  65 NE5       30.06R                  
CALDWELL       FAIR      66  63  90 VRB3      30.08S                  
SOMERVILLE     FAIR      65  63  93 CALM      30.05R                  
ALLAIRE*       CLOUDY    68  67  96 E5        30.07R                  
TOMS RIVER*    CLOUDY   N/A N/A N/A CALM      30.06R                  

$$
PAZ043-044-047-054-055-060>062-066>071-170600-
EASTERN PENNSYLVANIA
  
CITY           SKY/WX    TMP DP  RH WIND       PRES   REMARKS
PHILADELPHIA   CLOUDY    70  63  78 CALM      30.05S                  
NORTH PHILA    CLOUDY    71  63  75 NE3       30.07R                  
BLUE BELL*     CLOUDY    65  64  97 CALM      30.06S                  
DOYLESTOWN     FAIR      66  63  90 CALM      30.06S                  
QUAKERTOWN*    PTCLDY    64  64 100 CALM      30.08R                  
PERKASIE*      CLOUDY    63  63 100 CALM      30.08S                  
POTTSTOWN      MOCLDY    65  65 100 NE3       30.08R                  
LANCASTER      CLOUDY    71  63  75 NE9       30.05S                  
COATESVILLE    FAIR      68  64  88 CALM      30.08S                  
WEST CHESTER   CLOUDY    70  63  78 CALM      30.06S                  
READING        NOT AVBL                                               
ALLENTOWN      MOCLDY    66  60  81 NE5       30.08R                  
QN CITY/ALNTWN CLOUDY    68  63  83 CALM      30.09R                  
MOUNT POCONO   FAIR      55  48  77 N8        30.13R                  
HAZLETON       FAIR      61  55  82 N3        30.15R                  
LEHIGHTON      FAIR      59  59 100 CALM      30.10R FOG              
WILKES BARRE   FAIR      59  53  80 E5        30.12R                  

$$
DEZALL-MDZ008-012-015-019-020-170600-
DELAWARE AND EASTERN MARYLAND
  
CITY           SKY/WX    TMP DP  RH WIND       PRES   REMARKS
WILMINGTON     MOCLDY    71  66  84 NE8       30.04S                  
DOVER          FAIR      70  67  89 E3        30.02R                  
CHESWOLD       CLOUDY    70  68  94 CALM      30.02S                  
GEORGETOWN     FAIR      70  68  93 NE5       30.01S                  
EASTON         FAIR      73  68  84 CALM      30.04S                  
STEVENSVILLE   MOCLDY    73  68  83 NE3       30.00S                  
PATUXENT       CLOUDY    74  70  87 CALM      29.99                   
OCEAN CITY     CLOUDY    71  69  93 CALM      30.00S                  
WALLOPS ISLAND FAIR      72  69  90 E3        30.00R                  
CAMBRIDGE      CLOUDY    70  68  94 CALM      30.00S                  
SALISBURY      FAIR      68  65  90 CALM      30.00S                  

$$
PAZ001-021-NYZ056-072-MDZ011-DCZ001-170600-
OTHER NEARBY LOCATIONS
  
CITY           SKY/WX    TMP DP  RH WIND       PRES   REMARKS
HARRISBURG     MOCLDY    71  62  73 CALM      30.05S                  
STATE COLLEGE  CLOUDY    65  62  88 N6        30.12R                  
WILLIAMSPORT   FAIR      65  56  72 N5        30.10R                  
BINGHAMTON     FAIR      52  47  83 NE6       30.14R                  
NEW YORK CITY  MOCLDY    69  56  62 NE7       30.10R                  
BALTIMORE      MOCLDY    76  63  64 NE7       30.01S                  
WASHINGTON DC  MOCLDY    77  64  64 NE6       30.01S                  

$$